Left ArrowRight Arrow

Hourly Observations for April 11, 2019

Temp ( °F °C ) Dew Point ( °F °C ) Humidity (%) Winds ( mph kmh ) Pressure ( in mb ) Visibility ( mi km ) Precip ( " mm )
12:53 am 00:53 Mostly Clear 74 23.3 66 18.9 76 76 ESE 3 6 30.02 1017 10 16 0.00 0.00
1:53 am 01:53 Clear 71 21.7 65 18.3 81 81 ENE 6 9 30.00 1016 10 16 0.00 0.00
2:53 am 02:53 Clear 71 21.7 64 17.8 79 79 NE 6 9 29.99 1016 10 16 0.00 0.00
3:53 am 03:53 Clear 71 21.7 65 18.3 81 81 NE 6 9 29.98 1015 10 16 0.00 0.00
4:53 am 04:53 Clear 71 21.7 63 17.2 76 76 E 3 6 29.99 1016 10 16 0.00 0.00
5:53 am 05:53 Partly Cloudy 70 21.1 63 17.2 79 79 ESE 9 15 30.00 1016 10 16 0.00 0.00
6:53 am 06:53 Partly Cloudy 73 22.8 64 17.8 74 74 E 7 11 30.02 1017 10 16 0.00 0.00
7:53 am 07:53 Partly Cloudy 77 25 66 18.9 69 69 SSE 13 20 30.04 1017 10 16 0.00 0.00
8:53 am 08:53 Partly Cloudy 80 26.7 66 18.9 62 62 SSE 7 11 30.06 1018 10 16 0.00 0.00
9:53 am 09:53 Partly Cloudy 81 27.2 67 19.4 62 62 SSE 12 19 30.05 1018 10 16 0.00 0.00
10:53 am 10:53 Partly Cloudy 81 27.2 67 19.4 62 62 SSW 12 19 30.04 1017 10 16 0.00 0.00
11:53 am 11:53 Partly Cloudy 82 27.8 66 18.9 58 58 SSW 13 20 30.02 1017 10 16 0.00 0.00
12:53 pm 12:53 Partly Cloudy 84 28.9 66 18.9 55 55 S 14 22 29.99 1016 10 16 0.00 0.00
1:53 pm 13:53 Sunny 82 27.8 66 18.9 58 58 S 12 19 29.98 1015 10 16 0.00 0.00
2:53 pm 14:53 Partly Cloudy 83 28.3 66 18.9 57 57 S 13 20 29.95 1014 10 16 0.00 0.00
3:53 pm 15:53 Mostly Cloudy 82 27.8 67 19.4 60 60 SSW 8 13 29.96 1014 10 16 0.00 0.00
4:49 pm 16:49 Partly Cloudy with Rain 81 27 63 17 54 54 ESE 15 24 29.96 1014 10 16 0.00 0.00
4:53 pm 16:53 Partly Cloudy 82 27.8 61 16.1 49 49 SE 14 22 29.96 1015 10 16 0.00 0.03
5:53 pm 17:53 Partly Cloudy 81 27.2 61 16.1 51 51 SSW 7 11 29.97 1015 10 16 0.00 0.00
6:53 pm 18:53 Mostly Clear 79 26.1 64 17.8 60 60 NW 10 17 29.98 1015 10 16 0.00 0.00
7:14 pm 19:14 Clear 78 25.6 61 16.1 56 56 N 17 28 29.98 1015 10 16 0.00 0.00
7:53 pm 19:53 Clear 77 25 64 17.8 64 64 ESE 14 22 29.98 1015 10 16 0.00 0.00
8:04 pm 20:04 Clear 77 25 64 18 65 65 SE 16 26 29.98 1015 10 16 0.00 0.00
8:53 pm 20:53 Clear 76 24.4 62 16.7 62 62 ESE 13 20 30.01 1016 10 16 0.00 0.00
9:53 pm 21:53 Clear 75 24 63 17 65 65 SE 13 20 30.01 1016 10 16 0.00 0.00
10:53 pm 22:53 Clear 76 24.4 60 15.6 58 58 ESE 10 17 30.02 1017 10 16 0.00 0.00
11:53 pm 23:53 undefined 75 24 61 16 61 61 SSE 8 13 30.02 1016 10 16 0.00 0.00

Powered by Vaisala Xweather